QPF
0.00 0.00 0.00 0.00 0.00 0.00 0.00 0.00 0.00 0.00 0.00 0.00 0.00 0.00 0.00 0.00 0.00 0.00 0.00 0.01 0.01 0.01 0.01 0.01 0.01 0.01 0.02 0.02 0.03 0.03 0.03 0.04 0.05 0.03 0.01 0.01 0.01 0.01 0.03 0.05 0.06 0.04 0.03
0.00 0.00 0.00 0.00 0.00 0.00 0.00 0.00 0.00 0.00 0.00 0.00 0.00 0.00 0.00 0.00 0.00 0.00 0.00 0.00 0.00 0.00 0.00 0.00 0.01 0.01 0.02 0.02 0.02 0.02 0.03 0.04 0.07 0.06 0.03 0.02 0.01 0.02 0.04 0.05 0.05 0.04 0.03
0.00 0.00 0.00 0.00 0.00 0.00 0.00 0.00 0.00 0.00 0.00 0.00 0.00 0.00 0.00 0.00 0.00 0.00 0.00 0.00 0.00 0.00 0.00 0.00 0.00 0.01 0.02 0.02 0.03 0.04 0.04 0.05 0.05 0.05 0.02 0.01 0.01 0.02 0.05 0.08 0.08 0.05 0.02
0.00 0.00 0.00 0.00 0.00 0.00 0.00 0.00 0.00 0.00 0.00 0.00 0.00 0.00 0.00 0.00 0.00 0.00 0.00 0.00 0.00 0.00 0.00 0.01 0.01 0.02 0.04 0.05 0.04 0.03 0.03 0.02 0.02 0.02 0.02 0.01 0.01 0.02 0.05 0.11 0.09 0.04 0.02
0.00 0.00 0.00 0.00 0.00 0.00 0.00 0.00 0.00 0.00 0.00 0.00 0.00 0.00 0.00 0.00 0.00 0.00 0.00 0.00 0.00 0.00 0.00 0.01 0.02 0.03 0.06 0.05 0.03 0.03 0.02 0.01 0.01 0.02 0.03 0.02 0.02 0.04 0.06 0.07 0.05 0.03 0.01
0.00 0.00 0.00 0.00 0.00 0.00 0.00 0.00 0.00 0.00 0.00 0.00 0.00 0.00 0.00 0.00 0.00 0.00 0.00 0.00 0.00 0.00 0.00 0.01 0.01 0.01 0.02 0.02 0.01 0.01 0.01 0.02 0.04 0.05 0.05 0.03 0.01 0.04 0.06 0.06 0.04 0.02 0.01
0.00 0.00 0.00 0.00 0.00 0.00 0.00 0.00 0.00 0.00 0.00 0.00 0.00 0.00 0.00 0.00 0.00 0.00 0.00 0.00 0.00 0.00 0.00 0.00 0.01 0.01 0.02 0.00 0.00 0.00 0.02 0.06 0.10 0.09 0.06 0.02 0.02 0.04 0.06 0.05 0.03 0.01 0.01
0.00 0.00 0.00 0.00 0.00 0.00 0.00 0.00 0.00 0.00 0.00 0.00 0.00 0.00 0.00 0.00 0.00 0.00 0.00 0.00 0.00 0.00 0.00 0.01 0.02 0.02 0.01 0.00 0.00 0.01 0.04 0.09 0.12 0.08 0.05 0.02 0.03 0.05 0.05 0.04 0.02 0.01 0.01
0.00 0.00 0.00 0.00 0.00 0.00 0.00 0.00 0.00 0.00 0.00 0.00 0.00 0.00 0.00 0.00 0.00 0.00 0.00 0.00 0.00 0.00 0.00 0.00 0.01 0.01 0.01 0.01 0.02 0.02 0.05 0.09 0.09 0.08 0.07 0.08 0.09 0.07 0.04 0.02 0.01 0.01 0.02
0.00 0.00 0.00 0.00 0.00 0.00 0.00 0.00 0.00 0.00 0.00 0.00 0.00 0.00 0.00 0.00 0.00 0.00 0.00 0.00 0.00 0.00 0.00 0.00 0.00 0.01 0.01 0.02 0.03 0.03 0.06 0.10 0.14 0.15 0.12 0.13 0.13 0.10 0.07 0.04 0.03 0.02 0.03
0.00 0.00 0.00 0.00 0.00 0.00 0.00 0.00 0.00 0.00 0.00 0.00 0.00 0.00 0.00 0.00 0.00 0.00 0.00 0.00 0.00 0.00 0.00 0.00 0.00 0.02 0.04 0.04 0.04 0.06 0.10 0.16 0.21 0.23 0.17 0.12 0.10 0.07 0.05 0.05 0.04 0.03 0.02
0.00 0.00 0.00 0.00 0.00 0.00 0.00 0.00 0.00 0.00 0.00 0.00 0.00 0.00 0.00 0.00 0.00 0.00 0.00 0.00 0.00 0.00 0.00 0.01 0.01 0.05 0.06 0.05 0.07 0.10 0.11 0.16 0.20 0.19 0.14 0.09 0.07 0.05 0.05 0.04 0.03 0.02 0.01
0.00 0.00 0.00 0.00 0.00 0.00 0.00 0.00 0.00 0.00 0.00 0.00 0.00 0.00 0.00 0.00 0.00 0.00 0.00 0.00 0.00 0.00 0.01 0.03 0.05 0.06 0.06 0.07 0.11 0.14 0.14 0.15 0.16 0.15 0.12 0.10 0.07 0.04 0.04 0.03 0.02 0.01 0.01
0.00 0.00 0.00 0.00 0.00 0.00 0.00 0.00 0.00 0.00 0.00 0.00 0.00 0.00 0.00 0.00 0.00 0.00 0.00 0.00 0.00 0.01 0.02 0.04 0.07 0.08 0.07 0.09 0.11 0.15 0.14 0.16 0.17 0.13 0.10 0.09 0.07 0.05 0.03 0.02 0.02 0.01 0.01
0.00 0.00 0.00 0.00 0.00 0.00 0.00 0.00 0.00 0.00 0.00 0.00 0.00 0.00 0.00 0.01 0.01 0.00 0.01 0.01 0.01 0.02 0.03 0.04 0.05 0.05 0.05 0.07 0.08 0.12 0.12 0.11 0.13 0.14 0.12 0.08 0.06 0.04 0.04 0.04 0.03 0.03 0.02
0.00 0.00 0.00 0.00 0.00 0.00 0.00 0.00 0.00 0.00 0.00 0.00 0.00 0.00 0.00 0.01 0.01 0.00 0.01 0.02 0.03 0.05 0.06 0.06 0.07 0.08 0.08 0.09 0.09 0.10 0.11 0.10 0.12 0.14 0.13 0.10 0.07 0.05 0.05 0.05 0.05 0.04 0.02
0.00 0.00 0.00 0.00 0.00 0.00 0.00 0.00 0.00 0.00 0.00 0.00 0.00 0.00 0.01 0.01 0.01 0.01 0.01 0.03 0.05 0.06 0.05 0.07 0.10 0.13 0.14 0.13 0.11 0.10 0.13 0.15 0.19 0.19 0.14 0.10 0.08 0.07 0.06 0.05 0.04 0.03 0.03
0.00 0.00 0.00 0.00 0.00 0.00 0.00 0.00 0.00 0.00 0.00 0.00 0.00 0.00 0.01 0.01 0.02 0.01 0.02 0.03 0.04 0.05 0.06 0.08 0.11 0.13 0.15 0.16 0.14 0.12 0.15 0.20 0.22 0.19 0.13 0.11 0.08 0.05 0.03 0.03 0.03 0.02 0.01
0.00 0.00 0.00 0.00 0.00 0.00 0.00 0.00 0.00 0.00 0.00 0.00 0.00 0.00 0.01 0.01 0.01 0.02 0.03 0.02 0.04 0.05 0.07 0.08 0.11 0.10 0.08 0.09 0.10 0.11 0.13 0.17 0.17 0.14 0.11 0.08 0.05 0.02 0.02 0.02 0.02 0.01 0.01
0.00 0.00 0.00 0.00 0.00 0.00 0.00 0.00 0.00 0.00 0.00 0.00 0.01 0.01 0.01 0.01 0.01 0.02 0.02 0.02 0.02 0.03 0.05 0.08 0.11 0.09 0.06 0.04 0.05 0.06 0.08 0.09 0.08 0.07 0.05 0.03 0.02 0.02 0.02 0.01 0.01 0.00 0.00
0.00 0.00 0.00 0.00 0.00 0.00 0.00 0.00 0.00 0.00 0.00 0.01 0.01 0.02 0.04 0.02 0.03 0.03 0.03 0.03 0.03 0.03 0.02 0.03 0.07 0.08 0.08 0.06 0.03 0.02 0.03 0.02 0.02 0.02 0.02 0.01 0.02 0.02 0.01 0.01 0.00 0.00 0.00
0.00 0.00 0.00 0.00 0.00 0.00 0.00 0.00 0.00 0.00 0.01 0.01 0.02 0.02 0.04 0.03 0.03 0.03 0.04 0.05 0.06 0.06 0.05 0.04 0.03 0.05 0.07 0.07 0.04 0.02 0.02 0.02 0.02 0.01 0.01 0.02 0.02 0.01 0.01 0.01 0.00 0.00 0.00
0.00 0.00 0.00 0.00 0.00 0.00 0.00 0.00 0.00 0.00 0.01 0.02 0.03 0.03 0.03 0.03 0.04 0.04 0.05 0.06 0.07 0.08 0.08 0.06 0.06 0.06 0.07 0.09 0.06 0.04 0.03 0.02 0.02 0.01 0.01 0.02 0.01 0.01 0.00 0.00 0.00 0.00 0.00
0.00 0.00 0.00 0.00 0.00 0.00 0.00 0.00 0.00 0.00 0.00 0.01 0.01 0.03 0.04 0.05 0.05 0.05 0.06 0.07 0.08 0.10 0.11 0.11 0.10 0.10 0.10 0.11 0.09 0.05 0.04 0.03 0.03 0.02 0.01 0.01 0.01 0.01 0.00 0.00 0.00 0.00 0.00
0.00 0.00 0.00 0.00 0.00 0.00 0.00 0.00 0.00 0.00 0.00 0.00 0.00 0.01 0.02 0.03 0.05 0.05 0.06 0.06 0.07 0.08 0.08 0.08 0.08 0.09 0.10 0.10 0.09 0.05 0.04 0.04 0.05 0.03 0.02 0.01 0.01 0.01 0.00 0.00 0.00 0.00 0.00
0.00 0.00 0.00 0.00 0.00 0.00 0.00 0.00 0.00 0.00 0.00 0.00 0.00 0.00 0.01 0.01 0.02 0.04 0.04 0.03 0.03 0.04 0.05 0.06 0.05 0.04 0.04 0.04 0.04 0.04 0.03 0.02 0.01 0.01 0.01 0.01 0.00 0.00 0.00 0.00 0.01 0.00 0.00
MSLP
1020.78 1020.98 1021.15 1021.26 1021.28 1021.18 1020.96 1020.64 1020.27 1019.88 1019.52 1019.20 1018.94 1018.74 1018.57 1018.42 1018.25 1018.04 1017.78 1017.46 1017.09 1016.68 1016.24 1015.79 1015.34 1014.89 1014.45 1013.99 1013.53 1013.05 1012.55 1012.03 1011.51 1010.99 1010.50 1010.05 1009.68 1009.39 1009.19 1009.08 1009.05 1009.07 1009.11
1021.02 1021.14 1021.23 1021.25 1021.18 1021.00 1020.73 1020.39 1020.00 1019.62 1019.26 1018.95 1018.71 1018.52 1018.35 1018.19 1018.01 1017.78 1017.49 1017.14 1016.73 1016.28 1015.81 1015.33 1014.85 1014.38 1013.91 1013.45 1012.98 1012.50 1012.00 1011.49 1010.98 1010.49 1010.03 1009.64 1009.33 1009.11 1009.00 1008.97 1009.01 1009.07 1009.11
1021.16 1021.19 1021.18 1021.10 1020.94 1020.69 1020.37 1020.01 1019.63 1019.26 1018.94 1018.67 1018.47 1018.30 1018.15 1017.99 1017.80 1017.55 1017.23 1016.85 1016.41 1015.92 1015.42 1014.91 1014.41 1013.91 1013.43 1012.95 1012.47 1011.98 1011.47 1010.95 1010.45 1009.97 1009.54 1009.20 1008.96 1008.83 1008.81 1008.87 1008.98 1009.08 1009.10
1021.20 1021.14 1021.01 1020.83 1020.57 1020.26 1019.91 1019.55 1019.19 1018.87 1018.61 1018.40 1018.24 1018.11 1017.98 1017.83 1017.63 1017.35 1017.01 1016.59 1016.12 1015.61 1015.08 1014.55 1014.02 1013.51 1013.00 1012.49 1011.97 1011.44 1010.91 1010.37 1009.85 1009.37 1008.98 1008.69 1008.52 1008.48 1008.56 1008.71 1008.90 1009.05 1009.08
1021.13 1020.96 1020.74 1020.46 1020.13 1019.77 1019.41 1019.06 1018.75 1018.50 1018.31 1018.17 1018.07 1017.98 1017.87 1017.72 1017.50 1017.20 1016.82 1016.37 1015.87 1015.33 1014.78 1014.22 1013.67 1013.12 1012.57 1012.02 1011.46 1010.88 1010.29 1009.71 1009.16 1008.68 1008.30 1008.06 1007.96 1008.02 1008.20 1008.47 1008.75 1008.98 1009.05
1020.96 1020.70 1020.39 1020.03 1019.65 1019.27 1018.92 1018.62 1018.38 1018.20 1018.09 1018.02 1017.97 1017.91 1017.81 1017.65 1017.40 1017.07 1016.66 1016.17 1015.63 1015.07 1014.49 1013.91 1013.32 1012.74 1012.15 1011.54 1010.91 1010.27 1009.62 1008.98 1008.40 1007.90 1007.54 1007.33 1007.31 1007.45 1007.75 1008.13 1008.53 1008.86 1009.03
1020.72 1020.39 1020.01 1019.61 1019.20 1018.83 1018.52 1018.27 1018.10 1018.01 1017.97 1017.96 1017.95 1017.91 1017.80 1017.61 1017.33 1016.95 1016.49 1015.96 1015.39 1014.80 1014.19 1013.58 1012.97 1012.35 1011.71 1011.05 1010.36 1009.64 1008.93 1008.24 1007.62 1007.11 1006.76 1006.60 1006.64 1006.87 1007.27 1007.77 1008.30 1008.76 1009.04
1020.45 1020.07 1019.66 1019.24 1018.85 1018.51 1018.25 1018.07 1017.98 1017.96 1017.98 1018.02 1018.02 1017.97 1017.84 1017.60 1017.27 1016.83 1016.32 1015.75 1015.14 1014.52 1013.88 1013.25 1012.61 1011.96 1011.28 1010.56 1009.82 1009.06 1008.29 1007.57 1006.93 1006.43 1006.09 1005.97 1006.08 1006.39 1006.88 1007.49 1008.13 1008.72 1009.14
1020.19 1019.79 1019.38 1018.99 1018.63 1018.35 1018.16 1018.06 1018.03 1018.07 1018.13 1018.18 1018.18 1018.10 1017.91 1017.62 1017.22 1016.72 1016.15 1015.53 1014.89 1014.23 1013.58 1012.92 1012.26 1011.58 1010.87 1010.13 1009.35 1008.57 1007.79 1007.07 1006.44 1005.96 1005.67 1005.60 1005.76 1006.13 1006.70 1007.38 1008.11 1008.80 1009.36
1019.98 1019.61 1019.23 1018.88 1018.59 1018.38 1018.26 1018.23 1018.26 1018.34 1018.41 1018.45 1018.42 1018.29 1018.03 1017.67 1017.19 1016.63 1016.00 1015.34 1014.66 1013.98 1013.30 1012.62 1011.94 1011.25 1010.53 1009.78 1009.01 1008.23 1007.49 1006.80 1006.23 1005.80 1005.57 1005.56 1005.77 1006.20 1006.80 1007.52 1008.29 1009.04 1009.69
1019.86 1019.54 1019.23 1018.95 1018.74 1018.61 1018.56 1018.58 1018.65 1018.74 1018.81 1018.81 1018.73 1018.52 1018.20 1017.75 1017.21 1016.58 1015.90 1015.19 1014.47 1013.76 1013.07 1012.37 1011.68 1010.98 1010.27 1009.54 1008.80 1008.08 1007.40 1006.80 1006.31 1005.98 1005.83 1005.89 1006.15 1006.61 1007.21 1007.93 1008.70 1009.45 1010.12
1019.85 1019.61 1019.38 1019.19 1019.07 1019.01 1019.02 1019.08 1019.17 1019.25 1019.28 1019.23 1019.08 1018.80 1018.40 1017.88 1017.26 1016.58 1015.85 1015.11 1014.36 1013.63 1012.91 1012.20 1011.50 1010.80 1010.11 1009.41 1008.74 1008.10 1007.52 1007.04 1006.68 1006.46 1006.42 1006.56 1006.87 1007.33 1007.91 1008.59 1009.29 1009.99 1010.62
1019.97 1019.81 1019.67 1019.58 1019.54 1019.55 1019.61 1019.69 1019.77 1019.82 1019.80 1019.68 1019.45 1019.09 1018.61 1018.03 1017.36 1016.63 1015.87 1015.10 1014.33 1013.57 1012.83 1012.12 1011.41 1010.72 1010.05 1009.40 1008.80 1008.26 1007.81 1007.47 1007.25 1007.17 1007.24 1007.46 1007.81 1008.27 1008.82 1009.41 1010.02 1010.61 1011.16
1020.19 1020.13 1020.09 1020.08 1020.11 1020.18 1020.26 1020.35 1020.40 1020.39 1020.30 1020.11 1019.79 1019.36 1018.82 1018.18 1017.48 1016.72 1015.94 1015.16 1014.38 1013.61 1012.86 1012.13 1011.42 1010.74 1010.09 1009.50 1008.98 1008.55 1008.22 1008.02 1007.94 1008.00 1008.19 1008.48 1008.87 1009.32 1009.81 1010.32 1010.81 1011.28 1011.71
1020.49 1020.52 1020.58 1020.65 1020.74 1020.84 1020.93 1020.99 1021.00 1020.92 1020.75 1020.48 1020.09 1019.59 1018.99 1018.32 1017.60 1016.84 1016.06 1015.28 1014.50 1013.73 1012.98 1012.25 1011.54 1010.87 1010.25 1009.71 1009.26 1008.92 1008.71 1008.63 1008.69 1008.87 1009.15 1009.51 1009.93 1010.37 1010.80 1011.22 1011.61 1011.96 1012.27
1020.85 1020.97 1021.10 1021.24 1021.37 1021.48 1021.56 1021.58 1021.52 1021.37 1021.12 1020.76 1020.30 1019.75 1019.12 1018.43 1017.71 1016.96 1016.21 1015.45 1014.69 1013.95 1013.20 1012.48 1011.79 1011.13 1010.54 1010.04 1009.65 1009.39 1009.27 1009.29 1009.44 1009.70 1010.06 1010.47 1010.90 1011.32 1011.71 1012.07 1012.36 1012.62 1012.85
1021.24 1021.43 1021.63 1021.81 1021.97 1022.08 1022.12 1022.09 1021.96 1021.73 1021.40 1020.96 1020.44 1019.85 1019.20 1018.52 1017.81 1017.10 1016.39 1015.67 1014.96 1014.25 1013.54 1012.84 1012.17 1011.54 1010.98 1010.52 1010.17 1009.96 1009.90 1009.97 1010.18 1010.50 1010.89 1011.31 1011.75 1012.15 1012.51 1012.82 1013.07 1013.27 1013.45
1021.64 1021.89 1022.13 1022.35 1022.51 1022.60 1022.61 1022.52 1022.32 1022.01 1021.60 1021.11 1020.54 1019.91 1019.27 1018.60 1017.93 1017.27 1016.62 1015.96 1015.31 1014.65 1013.99 1013.34 1012.71 1012.11 1011.58 1011.15 1010.83 1010.65 1010.61 1010.71 1010.93 1011.25 1011.64 1012.07 1012.48 1012.87 1013.21 1013.49 1013.72 1013.91 1014.09
1022.05 1022.35 1022.62 1022.84 1023.00 1023.07 1023.03 1022.88 1022.61 1022.24 1021.77 1021.23 1020.63 1020.00 1019.36 1018.73 1018.11 1017.51 1016.92 1016.34 1015.75 1015.16 1014.57 1013.97 1013.38 1012.83 1012.33 1011.92 1011.62 1011.45 1011.41 1011.50 1011.70 1011.99 1012.35 1012.74 1013.13 1013.49 1013.81 1014.09 1014.33 1014.54 1014.76
1022.47 1022.79 1023.07 1023.30 1023.44 1023.48 1023.40 1023.20 1022.89 1022.47 1021.96 1021.39 1020.79 1020.17 1019.55 1018.96 1018.39 1017.85 1017.33 1016.82 1016.31 1015.78 1015.25 1014.71 1014.17 1013.66 1013.20 1012.81 1012.52 1012.34 1012.28 1012.33 1012.49 1012.73 1013.03 1013.37 1013.71 1014.03 1014.34 1014.62 1014.89 1015.15 1015.42
1022.90 1023.23 1023.51 1023.73 1023.85 1023.86 1023.75 1023.53 1023.19 1022.75 1022.23 1021.66 1021.06 1020.47 1019.89 1019.34 1018.82 1018.34 1017.87 1017.42 1016.96 1016.50 1016.02 1015.53 1015.04 1014.56 1014.13 1013.76 1013.47 1013.27 1013.17 1013.18 1013.28 1013.45 1013.68 1013.95 1014.23 1014.52 1014.82 1015.10 1015.40 1015.71 1016.04
1023.34 1023.66 1023.93 1024.13 1024.23 1024.23 1024.11 1023.87 1023.53 1023.10 1022.60 1022.06 1021.50 1020.94 1020.41 1019.90 1019.43 1018.98 1018.56 1018.14 1017.72 1017.29 1016.84 1016.38 1015.92 1015.47 1015.06 1014.69 1014.39 1014.17 1014.04 1013.99 1014.02 1014.12 1014.28 1014.48 1014.71 1014.96 1015.23 1015.52 1015.84 1016.18 1016.57
1023.78 1024.07 1024.32 1024.50 1024.59 1024.59 1024.47 1024.26 1023.95 1023.56 1023.11 1022.62 1022.11 1021.61 1021.12 1020.65 1020.21 1019.79 1019.38 1018.97 1018.55 1018.13 1017.69 1017.23 1016.78 1016.34 1015.92 1015.55 1015.23 1014.99 1014.81 1014.71 1014.68 1014.72 1014.80 1014.94 1015.12 1015.33 1015.58 1015.86 1016.19 1016.55 1016.97
1024.20 1024.46 1024.68 1024.85 1024.94 1024.94 1024.86 1024.69 1024.43 1024.11 1023.73 1023.32 1022.88 1022.44 1022.00 1021.57 1021.14 1020.73 1020.31 1019.88 1019.45 1019.00 1018.53 1018.06 1017.59 1017.13 1016.70 1016.31 1015.97 1015.69 1015.47 1015.33 1015.24 1015.22 1015.25 1015.33 1015.46 1015.64 1015.86 1016.13 1016.45 1016.82 1017.23
1024.59 1024.82 1025.01 1025.17 1025.27 1025.30 1025.26 1025.15 1024.97 1024.73 1024.44 1024.12 1023.76 1023.38 1022.99 1022.59 1022.17 1021.75 1021.31 1020.85 1020.38 1019.88 1019.38 1018.87 1018.36 1017.87 1017.41 1016.98 1016.61 1016.30 1016.04 1015.85 1015.72 1015.65 1015.63 1015.66 1015.75 1015.89 1016.08 1016.33 1016.63 1016.98 1017.38
1024.94 1025.14 1025.32 1025.47 1025.59 1025.66 1025.68 1025.64 1025.55 1025.40 1025.21 1024.97 1024.69 1024.37 1024.03 1023.65 1023.24 1022.81 1022.34 1021.84 1021.32 1020.78 1020.23 1019.67 1019.12 1018.59 1018.09 1017.63 1017.23 1016.87 1016.58 1016.34 1016.17 1016.05 1015.98 1015.97 1016.02 1016.12 1016.28 1016.50 1016.77 1017.09 1017.45
Thickness
5573 5565 5558 5551 5543 5536 5528 5520 5514 5510 5507 5505 5501 5497 5493 5487 5481 5475 5469 5465 5459 5454 5450 5448 5447 5447 5448 5450 5452 5453 5452 5449 5453 5460 5462 5465 5468 5471 5475 5478 5482 5484 5483
5562 5554 5547 5540 5533 5526 5518 5511 5506 5503 5500 5497 5493 5489 5484 5479 5472 5466 5459 5454 5448 5443 5440 5438 5438 5439 5440 5443 5446 5449 5449 5447 5449 5455 5458 5461 5464 5468 5471 5474 5476 5476 5475
5552 5543 5536 5530 5524 5516 5509 5504 5500 5497 5493 5489 5485 5481 5476 5469 5462 5456 5448 5442 5437 5434 5431 5430 5430 5431 5434 5437 5440 5444 5446 5446 5446 5450 5454 5457 5461 5466 5468 5469 5468 5466 5466
5542 5533 5527 5521 5515 5508 5502 5498 5496 5492 5487 5483 5478 5473 5467 5459 5452 5445 5438 5433 5428 5426 5425 5424 5424 5424 5427 5431 5435 5439 5441 5443 5445 5448 5453 5457 5461 5465 5466 5465 5461 5458 5457
5532 5524 5518 5512 5507 5502 5497 5494 5491 5486 5481 5476 5470 5464 5457 5449 5442 5435 5429 5425 5421 5419 5419 5419 5419 5421 5424 5426 5430 5433 5437 5440 5445 5450 5455 5459 5463 5465 5466 5463 5458 5452 5450
5520 5514 5509 5505 5501 5496 5493 5489 5485 5479 5473 5467 5460 5454 5447 5440 5433 5425 5419 5415 5413 5412 5412 5412 5413 5416 5418 5420 5424 5430 5435 5440 5448 5452 5457 5461 5465 5466 5465 5461 5454 5451 5449
5511 5507 5504 5500 5496 5492 5488 5483 5477 5470 5464 5457 5450 5443 5435 5427 5420 5412 5408 5406 5404 5405 5405 5405 5408 5411 5413 5416 5422 5429 5436 5442 5449 5456 5462 5465 5466 5467 5463 5458 5454 5449 5445
5505 5502 5500 5496 5491 5486 5482 5476 5469 5461 5454 5446 5437 5430 5421 5412 5405 5400 5398 5395 5396 5397 5399 5400 5402 5405 5409 5412 5419 5428 5437 5446 5454 5464 5470 5471 5470 5467 5463 5458 5451 5446 5443
5501 5498 5496 5492 5487 5482 5477 5470 5462 5453 5443 5433 5424 5415 5406 5398 5393 5389 5387 5385 5387 5390 5393 5396 5399 5401 5405 5409 5417 5426 5437 5448 5458 5466 5471 5471 5469 5465 5461 5456 5451 5449 5444
5498 5496 5494 5489 5484 5479 5471 5463 5454 5442 5430 5420 5409 5399 5392 5386 5382 5380 5380 5379 5380 5384 5389 5393 5396 5399 5402 5408 5415 5424 5435 5445 5454 5462 5464 5464 5462 5459 5457 5457 5455 5453 5448
5496 5493 5490 5485 5478 5470 5460 5451 5440 5427 5416 5405 5395 5387 5382 5378 5375 5374 5374 5374 5376 5379 5384 5389 5394 5397 5401 5407 5414 5423 5432 5441 5449 5455 5456 5456 5454 5452 5451 5451 5451 5452 5449
5492 5487 5481 5475 5468 5458 5447 5437 5425 5414 5402 5392 5385 5378 5374 5372 5370 5370 5371 5371 5373 5376 5382 5387 5392 5396 5401 5407 5416 5423 5432 5440 5445 5448 5449 5449 5447 5447 5447 5447 5448 5447 5446
5484 5478 5471 5464 5453 5444 5434 5423 5412 5402 5392 5384 5377 5370 5368 5368 5366 5366 5367 5369 5371 5375 5380 5385 5391 5396 5402 5409 5416 5424 5432 5437 5442 5445 5445 5444 5443 5443 5443 5443 5443 5443 5441
5476 5469 5461 5450 5440 5431 5423 5414 5404 5394 5385 5377 5370 5366 5364 5364 5363 5362 5363 5365 5368 5373 5378 5384 5390 5395 5402 5408 5416 5423 5430 5435 5439 5442 5441 5440 5440 5440 5440 5440 5438 5437 5437
5468 5461 5451 5441 5431 5421 5413 5404 5397 5388 5379 5370 5364 5361 5361 5360 5358 5357 5358 5362 5365 5370 5376 5384 5390 5395 5401 5407 5414 5421 5428 5434 5437 5438 5438 5437 5437 5437 5437 5435 5434 5433 5434
5460 5451 5442 5433 5423 5413 5404 5397 5391 5383 5375 5366 5360 5357 5357 5355 5356 5357 5359 5362 5367 5373 5379 5384 5389 5394 5399 5404 5411 5419 5426 5431 5435 5436 5436 5435 5434 5433 5433 5430 5429 5428 5430
5453 5442 5434 5425 5416 5407 5399 5390 5382 5376 5370 5363 5358 5355 5354 5355 5356 5357 5359 5364 5370 5375 5380 5384 5388 5393 5398 5402 5409 5416 5422 5428 5432 5434 5434 5433 5431 5429 5429 5427 5425 5426 5428
5445 5436 5427 5417 5408 5400 5393 5385 5377 5370 5364 5360 5357 5354 5353 5354 5356 5358 5360 5365 5371 5375 5378 5382 5387 5391 5396 5401 5406 5413 5419 5424 5428 5430 5431 5430 5429 5427 5425 5424 5423 5425 5427
5439 5429 5421 5412 5404 5395 5388 5381 5375 5368 5362 5357 5354 5353 5353 5354 5356 5358 5361 5363 5366 5371 5375 5380 5384 5388 5392 5397 5402 5408 5413 5418 5422 5425 5427 5427 5426 5425 5424 5423 5424 5424 5426
5434 5425 5417 5408 5400 5392 5384 5378 5373 5367 5362 5357 5354 5352 5352 5353 5355 5358 5360 5361 5364 5368 5372 5377 5382 5386 5390 5394 5400 5404 5408 5412 5416 5419 5422 5423 5423 5424 5424 5424 5424 5425 5426
5430 5421 5415 5406 5397 5389 5382 5375 5370 5365 5361 5357 5354 5351 5350 5352 5353 5356 5359 5361 5363 5366 5370 5375 5380 5385 5389 5392 5397 5401 5404 5407 5411 5414 5417 5419 5420 5422 5423 5424 5425 5426 5426
5429 5419 5411 5402 5394 5387 5379 5372 5367 5363 5359 5357 5354 5353 5352 5352 5353 5354 5357 5360 5363 5366 5369 5374 5379 5384 5388 5392 5395 5398 5401 5404 5408 5411 5414 5416 5418 5420 5422 5424 5426 5426 5425
5428 5418 5408 5399 5391 5384 5377 5370 5365 5362 5359 5356 5354 5352 5352 5351 5351 5352 5354 5356 5360 5364 5367 5371 5375 5380 5386 5390 5394 5397 5400 5402 5406 5409 5412 5414 5416 5418 5421 5423 5424 5424 5424
5427 5417 5406 5397 5388 5380 5373 5368 5364 5361 5359 5356 5353 5352 5350 5350 5350 5351 5352 5353 5356 5359 5363 5367 5371 5375 5381 5387 5392 5396 5399 5402 5405 5407 5410 5412 5413 5415 5418 5420 5422 5422 5421
5425 5415 5405 5394 5385 5377 5371 5366 5363 5360 5357 5355 5352 5350 5348 5348 5348 5349 5350 5352 5354 5356 5359 5363 5367 5372 5378 5383 5388 5393 5398 5401 5403 5405 5407 5409 5411 5412 5414 5417 5419 5419 5418
5423 5413 5402 5392 5382 5375 5369 5364 5361 5358 5355 5352 5350 5348 5346 5345 5344 5345 5346 5348 5351 5353 5356 5360 5364 5369 5375 5380 5385 5391 5396 5400 5402 5404 5405 5407 5408 5410 5411 5414 5416 5416 5415